COSMOS 2374 (GLONASS) 1 26566U 00063C 12035.12464228 -.00000009 +00000-0 +10000-3 0 09189 2 26566 064.5572 131.5782 0058643 214.8928 144.7387 02.13100350088019 COSMOS 2382 (GLONASS) 1 26987U 01053A 12035.74933934 +.00000092 +00000-0 +10000-3 0 05535 2 26987 063.1723 245.5166 0005497 184.5950 175.4664 02.13105499079218 COSMOS 2381 (GLONASS) 1 26988U 01053B 12035.15613218 +.00000092 +00000-0 +10000-3 0 05531 2 26988 063.1757 245.5455 0029039 208.3606 151.5423 02.13105563079218 COSMOS 2394 (GLONASS) 1 27617U 02060A 12037.18931203 .00000009 00000-0 10000-3 0 2032 2 27617 064.7557 132.2197 0001698 126.0945 233.9446 02.13102031 70994 COSMOS 2396 (GLONASS) 1 27618U 02060B 12035.20619989 -.00000008 +00000-0 +10000-3 0 02252 2 27618 064.7573 132.2616 0015284 148.9416 211.1650 02.13101034070932 COSMOS 2395 (GLONASS) 1 27619U 02060C 12035.25214816 -.00000008 +00000-0 +10000-3 0 02416 2 27619 064.7678 132.3412 0006425 278.5066 081.4386 02.13103307070931 COSMOS 2404 (GLONASS) 1 28112U 03056A 12034.92579777 +.00000088 +00000-0 +10000-3 0 00251 2 28112 063.4659 248.3951 0039355 095.9723 264.5474 02.13087713063442 COSMOS 2402 (GLONASS) 1 28113U 03056B 12035.56469781 +.00000090 +00000-0 +10000-3 0 09629 2 28113 063.4852 248.3962 0036383 093.8299 266.6556 02.13104892063467 COSMOS 2403 (GLONASS) 1 28114U 03056C 12035.68193546 .00000090 00000-0 10000-3 0 9075 2 28114 063.4898 248.4172 0039886 070.9440 289.5523 02.13104459 63464 COSMOS 2413 (GLONASS) 1 28508U 04053A 12035.04253993 .00000090 00000-0 10000-3 0 6452 2 28508 063.3725 247.1158 0010069 168.1041 191.9996 02.13104151 55312 COSMOS 2411 (GLONASS) 1 28509U 04053B 12036.92681808 .00000089 00000-0 10000-3 0 9632 2 28509 063.3659 247.0168 0004631 136.8017 300.3955 02.13102309 55350 COSMOS 2412 (GLONASS) 1 28510U 04053C 12034.99253291 .00000090 00000-0 10000-3 0 6493 2 28510 063.3803 247.1510 0002982 188.1769 171.8887 02.13103295 55312 COSMOS 2419 (GLONASS) 1 28915U 05050A 12036.84967741 .00000006 00000-0 00000+0 0 7109 2 28915 064.8916 131.8072 0016237 348.6547 332.9015 02.13103346 47590 COSMOS 2418 (GLONASS) 1 28916U 05050B 12036.83397786 .00000005 00000-0 10000-3 0 3914 2 28916 064.9078 131.8524 0016843 336.2602 023.6844 02.13104336 47607 COSMOS 2417 (GLONASS) 1 28917U 05050C 12034.37035919 -.00000013 +00000-0 +00000-0 0 03566 2 28917 064.8923 131.9004 0013601 139.2784 220.8386 02.13103611047541 COSMOS 2425 (GLONASS) 1 29670U 06062A 12037.24364773 -.00000030 00000-0 10000-3 0 4192 2 29670 065.8299 010.4987 0023414 341.8531 352.4234 02.13105546 39803 COSMOS 2426 (GLONASS) 1 29671U 06062B 12037.05602291 -.00000030 00000-0 10000-3 0 4372 2 29671 065.8458 010.5529 0016741 176.0568 246.7467 02.13103318 39816 COSMOS 2424 (GLONASS) 1 29672U 06062C 12037.44521131 -.00000031 00000-0 10000-3 0 4460 2 29672 065.8311 010.4988 0016314 175.3016 006.0426 02.13103067 39812 COSMOS 2433 (GLONASS) 1 32275U 07052A 12037.40728046 .00000011 00000-0 10000-3 0 1692 2 32275 064.9034 131.5323 0002505 252.4071 047.5744 02.13102677 33329 COSMOS 2432 (GLONASS) 1 32276U 07052B 12036.67361024 .00000004 00000-0 10000-3 0 1546 2 32276 064.9167 131.5959 0012862 340.5464 070.0772 02.13102095 33319 COSMOS 2431 (GLONASS) 1 32277U 07052C 12036.71057962 .00000004 00000-0 00000+0 0 1663 2 32277 064.9190 131.5753 0018639 191.5041 172.1100 02.13201301 33400 COSMOS 2434 (GLONASS) 1 32393U 07065A 12035.38921751 -.00000030 +00000-0 +00000-0 0 00035 2 32393 065.4532 010.6366 0002065 149.4040 297.6655 02.13102892031994 COSMOS 2435 (GLONASS) 1 32394U 07065B 12037.19579839 -.00000031 00000-0 10000-3 0 9161 2 32394 065.4573 010.5689 0020224 352.4522 355.4219 02.13103980 31960 COSMOS 2436 (GLONASS) 1 32395U 07065C 12035.79730220 -.00000030 +00000-0 +10000-3 0 09247 2 32395 065.4662 010.6392 0017842 345.2621 146.3334 02.13103130031933 COSMOS 2442 (GLONASS) 1 33378U 08046A 12035.70460552 -.00000005 +00000-0 +10000-3 0 09497 2 33378 064.8166 131.1227 0024727 335.0705 142.9406 02.13102141026154 COSMOS 2443 (GLONASS) 1 33379U 08046B 12037.18194159 .00000009 00000-0 10000-3 0 9357 2 33379 064.8253 131.1173 0020739 182.5728 214.7300 02.13102423 26199 COSMOS 2444 (GLONASS) 1 33380U 08046C 12036.76738888 .00000005 00000-0 10000-3 0 9373 2 33380 064.8354 131.1509 0025810 326.4821 068.6577 02.13102624 26177 COSMOS 2447 (GLONASS) 1 33466U 08067A 12035.66005067 +.00000088 +00000-0 +00000-0 0 08764 2 33466 064.2116 250.8639 0002304 285.1170 082.5711 02.13102066024214 COSMOS 2449 (GLONASS) 1 33467U 08067B 12036.82996715 .00000087 00000-0 00000+0 0 8817 2 33467 064.1995 250.7965 0002920 315.7009 005.0874 02.13101952 24252 COSMOS 2448 (GLONASS) 1 33468U 08067C 12036.64397429 .00000088 00000-0 10000-3 0 8754 2 33468 064.2040 250.8085 0004819 332.5662 113.8660 02.13101679 24246 COSMOS 2456 (GLONASS) 1 36111U 09070A 12035.72289954 +.00000089 +00000-0 +00000-0 0 06214 2 36111 064.4390 250.9496 0005342 340.8571 165.5143 02.13101909016667 COSMOS 2457 (GLONASS) 1 36112U 09070B 12037.39925532 .00000086 00000-0 00000+0 0 6080 2 36112 064.4206 250.8543 0006529 139.4954 348.1104 02.13101640 16704 COSMOS 2458 (GLONASS) 1 36113U 09070C 12037.30589668 .00000087 00000-0 10000-3 0 6141 2 36113 064.4270 250.8516 0003195 041.4124 059.6834 02.13101994 16709 COSMOS 2459 (GLONASS) 1 36400U 10007A 12036.76642843 .00000005 00000-0 10000-3 0 5493 2 36400 064.8035 130.9177 0031121 353.9843 039.8579 02.13102612 15041 COSMOS 2461 (GLONASS) 1 36401U 10007B 12037.38680367 .00000011 00000-0 10000-3 0 5505 2 36401 064.7954 130.8918 0005368 095.9498 324.0707 02.13102600 15056 COSMOS 2460 (GLONASS) 1 36402U 10007C 12037.22367369 .00000009 00000-0 10000-3 0 5555 2 36402 064.7846 130.8945 0001174 175.1708 163.8799 02.13102326 15047 COSMOS 2466 (GLONASS) 1 37137U 10041A 12037.46992522 -.00000031 00000-0 00000+0 0 4145 2 37137 065.0290 011.4984 0020559 160.4165 306.9529 02.13102599 11138 COSMOS 2465 (GLONASS) 1 37138U 10041B 12035.72756193 -.00000029 +00000-0 +00000-0 0 04233 2 37138 065.0443 011.6004 0034803 171.6621 219.5689 02.13102957011091 COSMOS 2464 (GLONASS) 1 37139U 10041C 12037.52294399 -.00000031 00000-0 00000+0 0 4073 2 37139 065.0470 011.5261 0020464 006.1654 097.1402 02.13102861 11134